{"data":{"norad_id":50499,"epoch":"2026-09-19T21:28:35.808096Z","epoch_age_seconds":78165,"freshness":"FRESH","line1":"1 50499U 21132AG  26262.89485889  .00000028  00000+0  38305-4 0  9995","line2":"2 50499  87.9168 316.6219 0002024 103.1628 256.9730 13.18685525234099","mean_motion":13.18685525,"eccentricity":0.0002024,"inclination_deg":87.9168,"raan_deg":316.6219,"arg_perigee_deg":103.1628,"mean_anomaly_deg":256.973,"bstar":3.8305e-5,"rev_number":23409,"period_min":109.19965167586,"perigee_km":1188.2132048979,"apogee_km":1191.2766835089,"semimajor_km":7567.8819442034,"source":"CELESTRAK","updated_at":"2026-09-20T09:00:44.706179Z"}}